Content
SEND FEEDBACK

Daily
Averages
Monthly
Summary
United States of America

WILMINGTON, NORTH CAROLINA


Home > North America > United States > North Carolina
Elevation: 21 meters     Latitude: 34 16N     Longitude: 077 54W

WEATHER
 
SELECT A DAY
Number of Records: 208,703;   Date Range: 1/1/95 - 7/23/14
 
SHARE

PRINT THIS DATA

[ ← Previous Day ]
WEATHER ALMANAC - 24 JUNE, 2013
[ Next Day → ]
[ °F ]   °C
We're sorry. There is no daily almanac available for Wilmington, North Carolina on 24 June, 2013.
WEATHER BY HOUR - 24 JUNE, 2013
[ °F ]   °C
Local TimeTemperatureDewpointHumidityBarometerVisibilityWind DirectionWind SpeedGust SpeedPrecipitationEventsConditions
1:53 AM24.4 °C22.8 °C91 %1022 hPa16.1 kmSouth (180°)11.1 km/hClear
2:53 AM23.9 °C22.8 °C94 %1022.4 hPa16.1 kmSSW (200°)5.6 km/hClear
3:48 AM24 °C23 °C94 %1022.7 hPa16.1 kmCalmMostly Cloudy
3:53 AM23.3 °C22.2 °C93 %1022.7 hPa16.1 kmCalmMostly Cloudy
4:53 AM22.8 °C22.2 °C96 %1023 hPa12.9 kmNNE (30°)7.4 km/hOvercast
5:53 AM22.8 °C22.2 °C96 %1023 hPa14.5 kmCalm0.25 mmOvercast
6:39 AM23 °C23 °C100 %1023 hPa14.5 kmCalmOvercast
6:53 AM23.3 °C22.8 °C97 %1023 hPa16.1 kmVariable11.1 km/h50.1 km/hScattered Clouds
7:53 AM26.1 °C23.9 °C88 %1023.4 hPa11.3 kmSouth (190°)7.4 km/hMostly Cloudy
8:09 AM26 °C24 °C89 %1023.7 hPa16.1 kmSSW (200°)11.1 km/h0 mmOvercast
8:32 AM23 °C22 °C94 %1023.7 hPa6.4 kmNW (320°)5.6 km/h0.51 mmRainRain
8:44 AM24 °C22 °C89 %1023.7 hPa16.1 kmCalm0.51 mmThunderstormThunderstorm
8:53 AM23.9 °C22.2 °C90 %1024 hPa4.8 kmWNW (290°)11.1 km/h0.51 mmRain-ThunderstormLight Thunderstorms and Rain
8:56 AM24 °C22 °C89 %1024 hPa2.9 kmWNW (290°)11.1 km/h0.76 mmRain-ThunderstormThunderstorms and Rain
8:59 AM24 °C22 °C89 %1024 hPa1.3 kmVariable7.4 km/h1.27 mmRain-ThunderstormHeavy Thunderstorms and Rain
9:11 AM23 °C22 °C94 %1024 hPa2.4 kmSouth (190°)5.6 km/h8.13 mmRain-ThunderstormHeavy Thunderstorms and Rain
9:15 AM23 °C22 °C94 %1024 hPa4.8 kmSouth (180°)7.4 km/h8.13 mmRain-ThunderstormLight Thunderstorms and Rain
9:53 AM23.9 °C21.7 °C87 %1023.7 hPa12.9 kmWSW (240°)7.4 km/h8.38 mmRain-ThunderstormLight Thunderstorms and Rain
10:00 AM24 °C22 °C89 %1023.7 hPa16.1 kmCalm0 mmRainLight Rain
10:34 AM24 °C21 °C83 %1024 hPa16.1 kmSE (140°)5.6 km/h0 mmRainLight Rain
10:44 AM24 °C22 °C89 %1024.4 hPa16.1 kmSE (130°)9.3 km/h0 mmRainLight Rain
10:53 AM23.9 °C22.2 °C90 %1024.4 hPa16.1 kmESE (120°)5.6 km/h0 mmRainLight Rain
11:00 AM24 °C22 °C89 %1024 hPa16.1 kmCalm0 mmRainLight Rain
11:16 AM24 °C22 °C89 %1024.4 hPa16.1 kmSSW (210°)7.4 km/h0.25 mmRain-ThunderstormLight Thunderstorms and Rain
11:22 AM24 °C22 °C89 %1024 hPa2.4 kmSSW (200°)13 km/h0.76 mmRain-ThunderstormThunderstorms and Rain
11:29 AM24 °C23 °C94 %1024 hPa1.9 kmSouth (180°)9.3 km/h3.56 mmRain-ThunderstormThunderstorms and Rain
11:32 AM24 °C23 °C94 %1024 hPa3.2 kmSouth (180°)9.3 km/h3.56 mmRain-ThunderstormLight Thunderstorms and Rain
11:39 AM24 °C23 °C94 %1024 hPa14.5 kmSouth (170°)7.4 km/h3.56 mmRain-ThunderstormLight Thunderstorms and Rain
11:49 AM24 °C23 °C94 %1024 hPa16.1 kmSouth (170°)9.3 km/h3.56 mmMostly Cloudy
11:53 AM23.9 °C22.8 °C94 %1024 hPa16.1 kmSSE (160°)9.3 km/h3.56 mmMostly Cloudy
12:53 PM25 °C23.3 °C90 %1024 hPa16.1 kmSSW (200°)11.1 km/h0.25 mmOvercast
1:53 PM27.8 °C23.9 °C79 %1022.7 hPa16.1 kmSouth (190°)16.7 km/hClear
2:34 PM29 °C24 °C74 %1022.4 hPa16.1 kmSouth (190°)13 km/hMostly Cloudy
2:46 PM28 °C23 °C74 %1022 hPa16.1 kmSSW (200°)22.2 km/hPartly Cloudy
2:53 PM28.9 °C23.3 °C72 %1021.7 hPa16.1 kmSSW (210°)14.8 km/hScattered Clouds
3:53 PM27.8 °C22.8 °C74 %1022.4 hPa16.1 kmSW (230°)14.8 km/hMostly Cloudy
4:10 PM24 °C21 °C83 %1022.4 hPa16.1 kmWest (280°)20.4 km/h38.9 km/h0 mmRainLight Rain
4:22 PM24 °C22 °C89 %1022.4 hPa4 kmWest (270°)9.3 km/h0 mmRainLight Rain
4:24 PM24 °C22 °C89 %1022.4 hPa2.9 kmWest (260°)5.6 km/h0.25 mmRainHeavy Rain
4:31 PM24 °C22 °C89 %1022.4 hPa3.2 kmWSW (250°)20.4 km/h1.78 mmRainLight Rain
4:38 PM23 °C21 °C88 %1022 hPa16.1 kmWSW (240°)16.7 km/h1.78 mmRainLight Rain
4:53 PM23.3 °C21.1 °C87 %1021.7 hPa16.1 kmCalm1.78 mmScattered Clouds
5:53 PM24.4 °C21.7 °C85 %1021.3 hPa16.1 kmCalmClear
6:53 PM25 °C22.2 °C84 %1021.3 hPa16.1 kmCalmClear
7:53 PM25 °C22.8 °C88 %1020.7 hPa16.1 kmSSW (200°)11.1 km/hClear
8:53 PM25 °C22.8 °C88 %1020.7 hPa16.1 kmSSW (200°)14.8 km/hClear
9:53 PM25 °C22.8 °C88 %1021 hPa16.1 kmSouth (190°)9.3 km/hClear
10:53 PM25 °C22.8 °C88 %1021.3 hPa16.1 kmSSW (200°)9.3 km/hClear
11:53 PM24.4 °C22.8 °C91 %1021.7 hPa16.1 kmSW (220°)5.6 km/hClear
Hourly data recorded from KILM, located 0 kilometers away from Wilmington, North Carolina







STORIES FROM OUR PARTNERS